Find OneWeb SL0588

NORAD ID: 55153 Int'l Des: 2023-004 Owner: ONEWEBN Country: UK Constellation: oneweb operational
別名: ONEWEB-0588 spacetrack, celestrak
LEOCIRCULARPOLARONEWEB_TYPE

現在のビュー

3D地球を読み込み中...

About OneWeb SL0588

OneWeb SL0588 (NORAD 55153) is a oneweb constellation satellite launched Jan 10, 2023 by ONEWEBN of UK. It operates in LEO, CIRCULAR, POLAR, ONEWEB_TYPE orbit with a mass of 148.00 kg.

次回通過

Passes for default location (London). Set your location on the main map for personalized predictions.

高度履歴

Loading altitude history...

軌道要素

1 55153U 23004P 26265.91305521 .00000059 00000-0 11776-3 0 9994
2 55153 87.9150 316.0450 0001830 112.1732 247.9594 13.18686426182577
Epoch: Sep 22, 2026 • Age: 8 hours

現在のステータス

高度 1201.3 km
遠地点 / 近地点 N/A
速度 7.26 km/s
衛星直下点 75.24°N, 40.09°E
打ち上げ日 Jan 10, 2023
運用期間 3.7 years
タイプ internet

技術仕様

分類 Payload
質量 148.00 kg
乾燥質量 140.00 kg
長さ 1.30 m
直径 1.00 m
スパン 5.00 m
形状 ? Trapezoid+2 pan
製造者 ONEWUS
バスタイプ ARROW
フェーズステータス In Orbit
所有者/国 ONEWEBN/UK

Most Searched